DM0AI-6 Weather Reports


time (UTC)temp
C
wind
direction
speed
KPH
gust
KPH
rain 1hr
cm
rain 24hr
cm
rain mn
cm
humidity
%
barometer
mb
20190820031805 15 180 0.0 0.0 0.00 0.00 0.00 81 1018.2
20190820022806 15 180 1.6 0.0 0.00 0.00 0.00 83 1018.1
20190820020804 15 180 0.0 0.0 0.00 0.00 0.00 84 1018.2
20190820003804 15 180 0.0 0.0 0.00 0.00 0.00 86 1017.9
20190820000808 15 158 0.0 0.0 0.00 0.00 0.00 86 1018.3
20190819233807 15 158 0.0 0.0 0.00 0.00 0.00 85 1018.4
20190819232803 15 180 0.0 0.0 0.00 0.00 0.00 85 1018.2
20190819225807 15 180 0.0 0.0 0.00 0.00 0.00 85 1018.3
20190819223806 15 248 0.0 0.0 0.00 0.00 0.00 85 1018.2
20190819194807 17 158 0.0 0.0 0.00 0.00 0.00 79 1017.2
20190819193804 17 180 0.0 0.0 0.00 0.00 0.00 79 1017.3
20190819183808 18 180 0.0 0.0 0.00 0.00 0.00 74 1016.5
20190819182807 19 158 1.6 0.0 0.00 0.00 0.00 73 1016.3
20190819155810 21 158 0.0 0.0 0.00 0.00 0.00 68 1016.1
20190819151805 21 158 0.0 0.0 0.00 0.00 0.00 64 1015.9
20190819142806 23 68 1.6 0.0 0.00 0.00 0.00 56 1015.6
20190819130805 25 270 3.2 0.0 0.00 0.00 0.00 57 1015.7
20190819125803 24 158 6.4 0.0 0.00 0.00 0.00 58 1015.7
20190819062804 17 0 0.0 0.0 0.00 0.00 0.00 86 1014.4
20190819040806 16 180 0.0 0.0 0.00 0.00 0.00 86 1013.0
20190819033808 17 180 0.0 0.0 0.00 0.00 0.00 86 1013.0